Torna al catalogo

FENGYUN 1C DEB

AttivoSSO
NORAD 35123·DEBRIS·🇨🇳 China

Lanciato May 10, 1999 da Taiyuan Satellite Launch Center

Loading…

Prossimi Passaggi (prossime 24 ore)

TLE

In scadenzaSource: Space-Track

Epoca: Sep 8, 2026, 11:50 UTC

1 35123U 99025DLB 26251.49371319  .00000549  00000-0  25295-3 0  9996
2 35123  99.1201  89.5477 0049844  24.5868 335.7671 14.24757767649146

Traccia FENGYUN 1C DEB in tempo reale con AllMySat

Download on the App Store